GSAT0214 (GALILEO 18) (41862 NORAD) Tracking and Keplerian Element Data

This shows tracking and keplerian element data for the satellite.

Feedback or suggestion? Click here.




ElementValue
Catalog41862
NameGSAT0214 (GALILEO 18)
Epoch Orbit1034
Epoch Day198.25353643
Epoch Year2018
RAAN181.3393
Inclination54.5828
Eccentricity0.0004734
Argument of Perigee271.4038
Mean Anonmoly88.5109
Mean Motion1.70473377
Decay Rate4.9E-07
L11 41862U 16069D 18198.25353643 .00000049 00000-0 00000-0 0 9994
L22 41862 54.5828 181.3393 0004734 271.4038 88.5109 1.70473377 10344

Live tracking and technical data element details for GSAT0214 (GALILEO 18) (NORAD 41862). GSAT0214 (GALILEO 18) can be tracked NOW for your location showing map with azimuth and elevation plus other details from your city location.

Track the satellite on the map from your city or location and see movement details for azimuth, elevation, latitude, longitude, range, height, and movement on the map or in text.







IsCatalogInMostPopularTable: catalog: 41862, numindb: 78
Update: records affected: 1



GetName: 41862 GSAT0214 (GALILEO 18)

Hit Count: updated at: Thu, 19 Jul 2018 03:43:09 GMT